Flag for U.S.A. Weather past 2 weeks in Boulder, Colorado, U.S.A.

Now
45 °F

Mostly cloudy.


Feels Like: 41 °F
Forecast: 39 / 51 °F
Wind: 6 mph from North

Location: Broomfield / Jeffco

Current Time: Apr 27, 2015 at 3:02:41 PM

Latest Report: Apr 27, 2015 at 12:47 PM


Visibility: 10 mi

Pressure: 30.28 "Hg

Humidity: 81%

Dew point: 39 °F

Location of BoulderLocation

Historic Weather in Boulder — Graph

°F

Boulder temperature yesterday

Maximum temperature yesterday: 46 °F (at 12:16 AM)
Minimum temperature yesterday: 37 °F (at 11:55 PM)
Average temperature yesterday: 44 °F

Past Weeks' High & Low Weather Summary

 TemperatureHumidityPressure
High75 °F (Apr 14, 2:50 PM)100% (Apr 16, 7:47 AM)30.28 "Hg (Apr 16, 7:47 AM)
Low32 °F (Apr 16, 7:47 AM)10% (Apr 14, 2:50 PM)29.66 "Hg (Apr 15, 2:16 AM)
Average46 °F62%29.95 "Hg
* Reported Apr 12 12:48 PM — Apr 27 12:47 PM, Boulder, Weather by CustomWeather, © 2015

Note: Actual official high and low records may vary slightly from our data, if they occured in-between our weather recording intervals... More about our weather records

Advertising

Boulder weather history for previous 24 hours

 ConditionsComfort  
Time TempWeatherWind HumidityBarometerVisibility
12:47 PM
Mon, Apr 27
45 °FMostly cloudy.6 mph81%30.28 "Hg10 mi
11:47 AM41 °FMostly cloudy.7 mph93%30.28 "Hg10 mi
10:55 AM41 °FFog.6 mph93%30.28 "Hg10 mi
9:47 AM41 °FLight rain. Mostly cloudy.6 mph93%30.28 "Hg10 mi
8:55 AM39 °FFog.5 mph100%30.26 "Hg10 mi
6:52 AM39 °FLight rain. Mostly cloudy.7 mph100%30.19 "Hg3 mi
5:56 AM37 °FFog.7 mph100%30.17 "Hg1 mi
5:35 AM37 °FMostly cloudy.6 mph100%30.16 "Hg7 mi
5:16 AM37 °FMostly cloudy.5 mph100%30.16 "Hg7 mi
4:56 AM37 °FLow clouds.6 mph100%30.15 "Hg7 mi
4:36 AM37 °FLow clouds.6 mph100%30.14 "Hg10 mi
4:16 AM37 °FMostly cloudy.5 mph100%30.14 "Hg7 mi
3:56 AM37 °FFog.6 mph100%30.14 "Hg4 mi
3:36 AM37 °FDrizzle. Mostly cloudy.5 mph100%30.14 "Hg7 mi
3:16 AM37 °FDrizzle. Overcast.6 mph100%30.13 "Hg10 mi
2:56 AM37 °FLight rain. Overcast.6 mph100%30.13 "Hg10 mi
2:36 AM37 °FLight rain. Overcast.6 mph100%30.13 "Hg10 mi
2:16 AM37 °FRain. Mostly cloudy.3 mph100%30.13 "Hg10 mi
1:56 AM37 °FRain. Mostly cloudy.5 mph100%30.13 "Hg10 mi
1:36 AM37 °FLight rain. Low clouds.5 mph100%30.13 "Hg10 mi
1:16 AM37 °FMostly cloudy.6 mph100%30.13 "Hg10 mi
12:56 AM39 °FLow clouds.7 mph100%30.12 "Hg10 mi
12:36 AM39 °FLow clouds.6 mph100%30.12 "Hg10 mi
12:16 AM37 °FMostly cloudy.7 mph100%30.12 "Hg7 mi
11:55 PM
Sun, Apr 26
37 °FLight rain. Overcast.8 mph100%30.12 "Hg7 mi
11:36 PM41 °FDrizzle. Low clouds.9 mph100%30.11 "Hg2 mi
11:16 PM41 °FDrizzle. Low clouds.10 mph100%30.10 "Hg2 mi
9:47 PM41 °FLight rain. Mostly cloudy.6 mph100%30.06 "Hg1 mi
8:46 PM41 °FDrizzle. Fog.7 mph100%30.05 "Hg3 mi
7:47 PM41 °FDrizzle. Mostly cloudy.9 mph100%30.01 "Hg1 mi
6:47 PM43 °FLight rain. Partly sunny.8 mph93%29.99 "Hg2 mi
5:47 PM43 °FLight rain. Mostly cloudy.9 mph93%29.95 "Hg2 mi
4:49 PM45 °FRain. Mostly cloudy.6 mph87%29.94 "Hg2 mi
3:45 PM43 °FRain. Mostly cloudy.5 mph93%29.92 "Hg2 mi
Weather by CustomWeather, © 2015

See weather overviewHow to use our weather pages